sat.trackr.live / text

‹ back to catalog

STARLINK-4553

NORAD 53577 · 2022-101BC

PAYLOAD ACTIVE UNKNOWN

§ Identity

Operator
Country
US
Launch date
2022-08-19
Launch site
AFETR
Launch vehicle
Mass (kg)
RCS (m²)

Purposes: comms

External: N2YO · Heavens-Above · Gunter

§ Orbital elements

Epoch: 2026-05-25T00:44:41.881056Z

Period
95.44 min
Inclination
53.2124°
Eccentricity
0.0001537
Mean motion
15.08840546 rev/d
Perigee alt
538.7 km
Apogee alt
540.8 km
Semi-major
6,917.9 km
B*
-1.9263e-5
RAAN
71.1592°
Arg perigee
96.1700°
Mean anomaly
263.9467°
Rev number
20,879

§ Raw data

STARLINK-45531 53577U 22101BC  26145.03104029 -.00000595  00000+0 -19263-4 0  99952 53577  53.2124  71.1592 0001537  96.1700 263.9467 15.08840546208794

JSON: /api/v1/satellites/53577 · /tle

For live sub-satellite position, see the globe view (requires WebGL).

§ Visibility from observer

Set your observer location to see the next 7 days of passes ≥ 10°. The values pass through the URL so the page stays shareable.

No JS? Fill the form by hand. The geolocation button needs JavaScript.